CZ-4C DEB, 43280

Orbit data source: Space-Track

CZ-4C DEB, 43280 is space debris in LEO originally from a launch on Tue, 10 Apr 2018 UTC launched from the Jiuquan Satellite Launch Center, China (JSC). Debris objects in space refer to the collection of defunct objects orbiting the Earth. Examples of debris include non-operational satellites, rocket bodies, and fragments generated from explosions, collisions, or faulty payload assembly.

Loading next visibility...
Identifier
43280, 2018-034F
Orbit
LEO
Country
Flag of CNCN / PRC
Related business
Manufacturer
Unknown
Mission
Spacecraft
Bus & Motor
Unknown
Mass
Unknown
Launch date (UTC)
2018-04-10 (8 years ago)
Launch vehicle
Unknown
Launch site
Jiuquan Satellite Launch Center, China (JSC)
Object type
Payload
Rocket body
Debris
Shape & HBR
Unknown shape, 2.3 m
Radar Cross Section
Large (>1 m²)

Expand to show TLE details & history
Last TLE update: 2 days ago

TLE from 2 days ago
0 CZ-4C DEB
1 43280U 18034F   26171.23792095  .00000028  00000-0  16326-3 0  9998
2 43280  63.3968 101.0147 0270608   7.1476 353.3287 13.44417396402252
Epoch: 2026-06-20T05:42Z
TLE epoch observation values (Epoch: 2026-06-20T05:42:36.370Z)
Latitude
-0.00003°
Longitude
106.90772°
Altitude
893.89 km
Speed
7.504 km/s
True Right ascension
06h 44m 03s
True Declination
0° 00' 00"
Sunlit
Object was in daylight at epoch
Visualization orbit readout
Latitude
Unknown
Longitude
Unknown
Altitude
Unknown
Speed
Unknown
Apparent Right ascension
Unknown
Apparent Declination
Unknown
Sunlit
N/A
Visualization observer readout
Local Sidereal Time
21:54:29
Azimuth
Unknown
Elevation
Unknown
Doppler factor
Unknown
Orbital elements
Apogee altitude
1,293.838 km
Perigee altitude
889.559 km
Semi-major axis
7,469.835 km
Eccentricity
0.02706
Inclination
63.3968°
RAAN
101.0147°
Arg. of periapsis
7.1476°
True anomaly
352.95595°
Mean anomaly
353.3287°
Eccentric anomaly
353.1436°
Mean motion
3.36184 °/min
Orbital period
107.08 mins
BSTAR
0.00016326
Loading maneuver chart data...
Computing Atmospheric mass density...
Loading historical data...
Loading historical data...
Loading historical data...
Loading historical data...
Loading historical data...
Loading historical data...
Loading historical data...

Documentation

Showing up to 5 results
|